STARLINK-5061, 54847

Orbit data source: Space-Track

STARLINK-5061, 54847 is a payload satellite owned by SpaceX/Seattle (US) in LEO that was launched on Wed, 28 Dec 2022 UTC via an FALCON 9 launch vehicle from the Air Force Eastern Test Range (AFETR). Payload-class satellites include a variety of spacecraft equipped with specific instruments for various scientific and technological missions. These include communications satellites like Starlink; space stations such as the ISS; scientific satellites like the Hubble; Earth observation satellites from companies like Planet Labs, Umbra, and HawkEye 360; GPS; miniature CubeSats for education and research; and military/defense satellites.

Loading next visibility...
Identifier
54847, 2022-177AD
Orbit
LEO
Country
Flag of USUS
Related business
Manufacturer
SpaceX/Seattle
Mission
Operational Commercial Communications
Bus & Motor
STARLINK, Unknown motor
Mass
305 kg wet, ~290 kg dry
Launch date (UTC)
2022-12-28 (3 years ago)
Launch vehicle
FALCON 9
Launch site
Air Force Eastern Test Range (AFETR)
Object type
Payload
Rocket body
Debris
Shape & HBR
Box + 1 Pan, 10.1 m
Radar Cross Section
13.562 m², Large (>1 m²)

Expand to show TLE details & history
Last TLE update: 2 days ago

TLE from 2 days ago
0 STARLINK-5061
1 54847U 22177AD  26171.30243056 -.00000065  00000-0  71776-5 0  9992
2 54847  43.0005 250.7847 0001681 273.9780  86.0880 15.27577764192910
Epoch: 2026-06-20T07:15Z
TLE epoch observation values (Epoch: 2026-06-20T07:15:30.000Z)
Latitude
0.00002°
Longitude
-126.60928°
Altitude
482.753 km
Speed
7.626 km/s
True Right ascension
16h 43m 08s
True Declination
0° 00' 00"
Sunlit
Object was in full shadow at epoch
Visualization orbit readout
Latitude
Unknown
Longitude
Unknown
Altitude
Unknown
Speed
Unknown
Apparent Right ascension
Unknown
Apparent Declination
Unknown
Sunlit
N/A
Visualization observer readout
Local Sidereal Time
23:18:36
Azimuth
Unknown
Elevation
Unknown
Doppler factor
Unknown
Orbital elements
Apogee altitude
486.155 km
Perigee altitude
483.847 km
Semi-major axis
6,863.138 km
Eccentricity
0.00017
Inclination
43.0005°
RAAN
250.7847°
Arg. of periapsis
273.978°
True anomaly
86.10722°
Mean anomaly
86.088°
Eccentric anomaly
86.09761°
Mean motion
3.81732 °/min
Orbital period
94.31 mins
BSTAR
0.0000071776
Loading maneuver chart data...
Computing Atmospheric mass density...
Loading historical data...
Loading historical data...
Loading historical data...
Loading historical data...
Loading historical data...
Loading historical data...
Loading historical data...

Documentation

Showing up to 5 results
|